Tracking 31027 objects as of 19-Jul-2025
HD Live streaming from Space Station
objects crossing your sky now

DELTA 1 DEB

Track DELTA 1 DEB now!
10-day predictions


NORAD ID: 21444
Int'l Code: 1975-052EC
Perigee: 1,085.4 km
Apogee: 1,495.1 km
Inclination: 99.7 °
Period: 111.2 minutes
Semi major axis: 7661 km
RCS: 0.0097 m2 (small)
Launch date: June 12, 1975
Source: United States (US)
Launch site: AIR FORCE WESTERN TEST RANGE (AFWTR)

Note: This is SATELLITE DEBRIS
Your satellite tracking list
KL-BETA B
Track 1 satellite(s)




NASA's NSSDC Master Catalog

Two Line Element Set (TLE):
1 21444U 75052EC  25199.66536309  .00000091  00000-0  38609-3 0  9997
2 21444  99.6782 146.3656 0267357  88.5639  33.8273 12.94656581613911
Source of the keplerian elements: AFSPC